Погода Черновцы

Погода Черновцы : погода сейчас, прогноз погоды и архив. Всё, что Вы хотите узнать о погоде Черновцы!

Поиск расширенной информации на нашем сайте:

Другие новости

Новости СМИ2

Главная страница сайта

Новости сайта

02.10.2013

Напоминаем, что на нашем новом сайте вы можете получить высокодетализированные прогнозы погоды по пунктам России, СНГ и мира (включающие важные для авиации метеовеличины, такие как направление и скорость ветра, видимость, явления погоды, количество и форма облачности, нижняя и верхняя граница облачности), а также ознакомиться с разнообразными материалами по авиационной метеорологии и подборкой полезных ссылок на эту тему.

Сайт Метеоцентр.Азия посвящён разработке технологий оптимизации авиаметеорологического обслуживания, включая проектирование и перспективное создание нескольких автоматизированных авиаметеорологических систем:
- система выпуска высокодетальных прогностических карт явлений погоды для нижнего воздушного пространства по России и ближнему зарубежью;
- система верификации прогнозов TAF (выпускаемых синоптиками официальных АМСГ РФ и ближнего зарубежья) и AUTOTAF (выпускаемых сайтом Метеоцентр.Азия) - выявление ошибок, онлайн-сопоставление с фактической погодой METAR, автоматическое внесение коррективов в прогнозы при резком отклонении фактической погоды от прогноза, подсчёт оправдываемости прогнозов по элементам и в целом;
- система обработки, анализа и отображения авиаметеорологической информации для применения провайдерами метеорологической информации.


Погода Черновцы - сегодня

Время (UTC), дата Ветер
(°,м/с) 
Видим.   Явления Облачность Т
(°С)
Тd
(°С)
f(%) Тe
(°С)
Pmin
(гПа)
dP
(гПа)
Po
(мм)
O2
(г/м3)
Тmin Tmax R s Состояние
почвы
06 25.04.17 110 (В) 27000 м    5/0 верхняя 
[Ci fib]
+5.4 +0.5 71 +6  1019.2  0.3  742  293  -0.6         
09 25.04.17 150 (ЮВ) 50000 м    6/0 верхняя 
[Ci fib]
+14.6 -2.2 31 +14  1016.7  -1.5  741  284           
12 25.04.17 160 (Ю) 50000 м    8/3 1500 м верхняя 
[Cu hum|Ci fib]
+18 -1.1 27 +19  1014.1  -2.2  739  279           
15 25.04.17 250 (З) 50000 м    8/6 1500 м верхняя 
[Cu hum|Ci fib]
+20.5 -0 25 +21  1012.2  -1.6  738  276           
18 25.04.17 200 (Ю) 45000 м    6/0 верхняя 
[Ci fib]
+15.3 +0.9 38 +16  1013.4  0.6  738  282    +20.5       
21 25.04.17 180 (Ю) 50000 м    ясно 
+12.1 +1.7 49 +12  1014  0.3  739  285           
00 26.04.17 090 (В) 40000 м    ясно 
+6.8 +3.3 78 +7  1014.1  -0.4  738  290           
03 26.04.17 110 (В) 45000 м    6/0 верхняя 
[Ci fib]
+7.2 +3 75 +6  1013.6  -0.5  738  289           
06 26.04.17 090 (В) 40000 м    5/0 средняя 
[Ac trans]
+11.7 +5.3 65 +12  1014  0.9  739  284  +6.4         
09 26.04.17 210 (ЮЗ) 50000 м    4/0 средняя 
[Ac trans]
+20.3 +2.1 30 +20  1013.5  0.3  739  277           
12 26.04.17 180 (Ю) 50000 м    9/3 1500 м верхняя 
[Cu hum|Ci fib]
+20.9 +1.5 28 +21  1012.3  -1.1  738  276           
15 26.04.17 140 (ЮВ) 50000 м    9/0 средняя 
[Ac trans]
+20.3 +6.3 40 +20  1011.8  -0.5  738  276           
18 26.04.17 170 (Ю) 35000 м    8/0 средняя 
[Ac trans]
+15.6 +7 57 +17  1012.6  0.3  738  280    +21.7       
21 26.04.17 170 (Ю) 35000 м    6/0 средняя 
[Ac trans]
+12.7 +8.1 74 +14  1013  0.1  738  283           
00 27.04.17 110 (В) 30000 м    6/0 верхняя 
[Ci fib]
+13.3 +7.7 69 +15  1012.8  -0.1  738  282           
03 27.04.17 070 (В) 25000 м    9/0 средняя, верхняя 
[Ac trans|Ci fib]
+9.5 +8.3 92 +11  1013.2  738  286           
06 27.04.17 110 (В) 28000 м    9/0 средняя 
[Ac trans]
+12.4 +8.6 78 +12  1013.3  0.4  738  283  +8.7         
09 27.04.17 060 (СВ) 35000 м    8/0 средняя 
[Ac trans]
+20.4 +8.2 45 +20  1012.4  -0.1  738  275           
12 27.04.17 130 (ЮВ) 50000 м    5/0 средняя 
[Ac trans]
+25.6 +3.9 25 +26  1010.5  -1.4  737  271           
15 27.04.17 150 (ЮВ) 50000 м    8/3 1000 м кучево-дожд., средняя 
[Cb calv|Ac trans]
+23.9 +5.5 30 +24  1010.2  -0.4  737  272           
18 27.04.17 120 (ЮВ) 50000 м    8/0 средняя, верхняя 
[Ac trans|Ci fib]
+18.4 +8 51 +19  1011.3  0.6  737  277    +26.1       
21 27.04.17 тихо ()   50000 м    6/0 верхняя 
[Ci fib]
+14.6 +7.4 62 +15  1012.6  0.8  738  281           
00 28.04.17 тихо ()   50000 м    ясно 
+10.9 +8.7 86 +11  1012.4  -0.5  737  284           
03 28.04.17 тихо ()   25000 м    5/0 верхняя 
[Ci fib]
+9.5 +8.3 92 +10  1012.8  0.2  737  286           
06 28.04.17 100 (В) 20000 м    8/0 средняя, верхняя 
[Ac trans|Ci fib]
+12.6 +10.1 85 +15  1012.3  -0.1  737  282  +9.4         
Время (UTC), дата Ветер
(°,м/с) 
Видим.   Явления Облачность Т
(°С)
Тd
(°С)
f(%) Тe
(°С)
Pmin
(гПа)
dP
(гПа)
Po
(мм)
O2
(г/м3)
Тmin Tmax R s Состояние
почвы

Для получения пояснительной информации подведите курсор к названию столбца.

ПОГОДА Черновцы - архив

Всё, что Вы хотите узнать о погоде Черновцы - удобно и подробно!

Выберите нужную дату (начиная с 1 января 2015* года) и нажмите кнопку "Найти".
Будут отображены архивные сводки погоды по пункту Черновцы, начиная с указанной даты.


Отображать данные в формате CSV (для использования в таблицах Excel)


Внимание! Наш архив погоды предназначен исключительно для личного некоммерческого использования в познавательных целях. Если Вам необходимы официальные справки о состоянии погоды (для производственных, юридических, коммерческих и т.п. целей), обращайтесь в органы Росгидромета.

*Примечание: данная дата относится к архиву по метеостанциям СССР (Россия, СНГ, Балтия).
Архив по метеостанциям Зарубежной Европы и Азии (кроме Китая) хранится 10 дней, по другим регионам земного шара (Китай, Африка, Америка, Австралия, Океания) - 1 день.

Черновцы - район местоположения метеостанции


Название, широта, долгота, высота метеостанции:
Черновцы 48.4°ш. 25.9°д. 246 м над ур. моря [Украина]

Дополнительная информация

В oтличие oт бoльшинства пoгoдных сайтoв мы публикуем пoдрoбную метеoинфoрмацию в детальнoм прoфессиoнальнoм фoрмате.

Характеристики температуры и влажнoсти вoздуха измеряются на высoте 2 м в тени вдали oт зданий и деревьев.
Скoрoсть ветра измеряется на высoте 10 м (на урoвне рoста челoвека скoрoсть ветра ниже в 1.5-2 раза). Если метеoстанция нахoдится в гoрoде или в лесу, тo скoрoсть ветра занижена на 2-4 м/с пo сравнению с oткрытым местoм. Скoрoсть ветра над акватoриями крупных рек и oзёр, а также на вершинах хoлмoв на 2-5 м/с выше, чем в oбычных услoвиях.
Атмoсфернoе давление в разных тoчках местнoсти мoжет значительнo oтличаться oт давления на метеoстанции, в зависимoсти oт услoвий рельефа (при пoдъёме на 10 м давление пoнижается примернo на 1 мм рт.ст.).